Regional Weather Roundup
Issued by NWS Goodland, KS

Home | Current Version | Previous Version | Text Only | Print | Product List | Glossary On
Versions: 1 2 3 4 5 6 7 8 9 10 11 12 13 14 15 16 17 18 19 20 21 22 23 24 25 26 27 28 29 30 31 32 33 34 35 36 37 38 39 40 41 42 43 44 45 46 47 48 49 50
000
ASUS43 KGLD 301708
RWRGLD

GOODLAND FORECAST AREA HOURLY WEATHER ROUNDUP
NATIONAL WEATHER SERVICE GOODLAND KS
1100 AM MDT FRI SEP 30 2016

...OFFICIAL OBSERVATIONS...

CITY           SKY/WX    TMP DP  RH WIND       PRES   REMARKS
GOODLAND KS    MOSUNNY   64  46  52 SE18G26   30.20F
HILL CITY KS   SUNNY     65  50  58 SE9       30.26F
IMPERIAL NEB   MOSUNNY   64  45  49 SE14      30.22S
MCCOOK NEB     MOSUNNY   67  47  48 SE17      30.23F
AKRON CO       SUNNY     64  42  44 VRB5      30.21S
BURLINGTON CO  CLOUDY    62  44  51 SE15      30.21F
LIMON CO       CLOUDY    70  40  33 N8        30.22F
$$

...UNOFFICIAL OBSERVATIONS...

CITY           SKY/WX    TMP DP  RH WIND       PRES   REMARKS
COLBY KS       SUNNY     66  50  55 SE16      30.23F
LENORA KS        N/A     63  32  31 MISG        N/A
NORTON KS      SUNNY     64  46  52 E9        30.24F
SHARON SPRINGS   N/A     66  50  56 SE15G24     N/A
KIT CARSON CO    N/A     63  46  54 MISG        N/A
$$




USA.gov is the U.S. government's official web portal to all federal, state and local government web resources and services.